This demonstration page uses our WeatherBlox Daily Observations layout. Learn more.

Left ArrowRight Arrow

40.92945, -100.16068

Hourly Observations for November 6, 2018

Temp ( °F °C ) Dew Point ( °F °C ) Humidity (%) Winds ( mph kmh ) Pressure ( in mb ) Visibility ( mi km ) Precip ( " mm )
12:15 am 00:15 Clear 33 0.4 28 -2.3 82 82 W 6 9 29.94 1014 10 16.0934 0 0
12:35 am 00:35 Clear 33 0.5 28 -2.1 83 83 W 10 17 29.94 1014 10 16.0934 0 0
12:55 am 00:55 Clear 33 0.3 28 -2.2 84 84 WNW 6 9 29.94 1014 10 16.0934 0 0
1:15 am 01:15 Clear 31 -0.4 27 -3 83 83 W 8 13 29.97 1015 10 16.0934 0 0
1:35 am 01:35 Clear 32 -0.1 27 -2.6 83 83 W 5 7 29.97 1015 10 16.0934 0 0
1:55 am 01:55 Clear 31 -0.5 27 -2.6 86 86 W 5 7 30 1016 10 16.0934 0 0
2:15 am 02:15 Clear 30 -1.1 26 -3.2 86 86 W 3 6 30 1016 10 16.0934 0 0
2:35 am 02:35 Clear 29 -1.4 26 -3.3 87 87 W 6 9 30 1016 10 16.0934 0 0
2:55 am 02:55 Clear 29 -1.5 26 -3.3 88 88 W 6 9 30 1016 10 16.0934 0 0
3:15 am 03:15 Clear 30 -1.2 26 -3.3 86 86 WNW 5 7 30.03 1017 10 16.0934 0 0
3:35 am 03:35 Clear 28 -2.3 25 -3.9 89 89 NW 6 9 30 1016 10 16.0934 0 0
3:55 am 03:55 Clear 27 -2.6 24 -4.2 89 89 NNW 5 7 30 1016 10 16.0934 0 0
4:15 am 04:15 Clear 28 -2.5 25 -4.1 89 89 NW 3 6 30.03 1017 10 16.0934 0 0
4:35 am 04:35 Clear 28 -2.1 25 -3.9 88 88 WNW 5 7 30.03 1017 10 16.0934 0 0
4:55 am 04:55 Clear 28 -2.5 25 -4.1 89 89 WNW 6 9 30.03 1017 10 16.0934 0 0
5:15 am 05:15 Clear 28 -2.5 24 -4.3 88 88 WNW 8 13 30.03 1017 10 16.0934 0 0
5:35 am 05:35 Clear 28 -2.3 25 -4 88 88 W 6 9 30.06 1018 10 16.0934 0 0
5:55 am 05:55 Partly Cloudy 29 -1.6 26 -3.3 88 88 WNW 8 13 30.06 1018 10 16.0934 0 0
6:15 am 06:15 Partly Cloudy 29 -1.6 26 -3.5 87 87 NW 6 9 30.06 1018 10 16.0934 0 0
6:35 am 06:35 Mostly Cloudy 31 -0.5 28 -2.3 88 88 W 6 9 30.09 1019 10 16.0934 0 0
6:55 am 06:55 Cloudy 32 0 28 -2 87 87 W 6 9 30.09 1019 10 16.0934 0 0
7:15 am 07:15 Cloudy 32 -0.1 28 -2.1 87 87 W 6 9 30.09 1019 10 16.0934 0 0
7:35 am 07:35 Partly Cloudy 31 -0.7 28 -2.5 88 88 WNW 3 6 30.09 1019 10 16.0934 0 0
7:55 am 07:55 Sunny 30 -1.2 27 -3 88 88 NW 5 7 30.09 1019 10 16.0934 0 0
8:15 am 08:15 Mostly Cloudy 32 -0.1 29 -1.7 89 89 Calm 30.12 1020 10 16.0934 0 0
8:35 am 08:35 Cloudy 33 0.7 31 -0.8 90 90 NW 6 9 30.09 1019 10 16.0934 0 0
8:55 am 08:55 Cloudy 36 2.2 32 0 86 86 NW 7 11 30.12 1020 10 16.0934 0 0
9:15 am 09:15 Cloudy with Light Rain 37 2.7 32 0.2 84 84 NW 9 15 30.12 1020 10 16.0934 0 0
9:35 am 09:35 Cloudy with Light Rain 38 3.1 33 0.8 85 85 WNW 6 9 30.12 1020 10 16.0934 0 0
9:55 am 09:55 Cloudy with Light Rain 39 3.7 35 1.5 86 86 WNW 6 9 30.12 1020 10 16.0934 0 0
10:15 am 10:15 Cloudy 40 4.3 35 1.9 85 85 WNW 8 13 30.09 1019 10 16.0934 0 0
10:35 am 10:35 Cloudy 42 5.3 37 2.5 82 82 WNW 7 11 30.09 1019 10 16.0934 0 0
10:55 am 10:55 Mostly Cloudy 42 5.4 36 2.1 80 80 NNW 7 11 30.09 1019 10 16.0934 0 0
11:15 am 11:15 Partly Cloudy 43 5.9 36 2 76 76 NW 8 13 30.09 1019 10 16.0934 0 0
11:35 am 11:35 Mostly Cloudy 44 6.6 35 1.7 71 71 NW 12 19 30.09 1019 10 16.0934 0 0
11:55 am 11:55 Mostly Cloudy 45 7.4 35 1.6 67 67 NNW 7 11 30.06 1018 10 16.0934 0 0
12:15 pm 12:15 Mostly Cloudy 46 7.7 35 1.7 66 66 WNW 9 15 30.03 1017 10 16.0934 0 0
12:35 pm 12:35 Partly Cloudy 46 7.9 34 1.2 63 63 WNW 5 7 30.03 1017 10 16.0934 0 0
12:55 pm 12:55 Sunny 47 8.3 34 1.3 62 62 NW 3 6 30.03 1017 10 16.0934 0 0
1:15 pm 13:15 Sunny 48 9.1 34 1.1 58 58 W 6 9 30.03 1017 10 16.0934 0 0
1:35 pm 13:35 Sunny 49 9.6 32 0.2 52 52 WNW 6 9 30.03 1017 10 16.0934 0 0
1:55 pm 13:55 Partly Cloudy 49 9.7 32 0 51 51 WNW 6 9 29.97 1015 10 16.0934 0 0
2:15 pm 14:15 Sunny 50 9.9 31 -0.4 49 49 NW 6 9 29.97 1015 10 16.0934 0 0
2:35 pm 14:35 Sunny 51 10.6 31 -0.4 47 47 WNW 9 15 29.97 1015 10 16.0934 0 0
2:55 pm 14:55 Sunny 50 10.2 31 -0.7 47 47 W 3 6 29.97 1015 10 16.0934 0 0
3:15 pm 15:15 Sunny 51 10.6 29 -1.4 44 44 NW 7 11 30 1016 10 16.0934 0 0
3:35 pm 15:35 Sunny 51 10.7 29 -1.9 42 42 WNW 6 9 30 1016 10 16.0934 0 0
3:55 pm 15:55 Sunny 51 10.7 28 -2 41 41 W 7 11 30 1016 10 16.0934 0 0
4:15 pm 16:15 Sunny 51 10.7 28 -2 41 41 W 9 15 30 1016 10 16.0934 0 0
4:35 pm 16:35 Sunny 51 10.5 28 -2.1 42 42 WSW 5 7 30 1016 10 16.0934 0 0
4:55 pm 16:55 Sunny 50 10 29 -1.6 45 45 WSW 5 7 30 1016 10 16.0934 0 0
5:15 pm 17:15 Sunny 49 9.2 29 -1.9 46 46 Calm 30.03 1017 10 16.0934 0 0
5:35 pm 17:35 Clear 46 7.7 29 -1.6 52 52 Calm 30.06 1018 10 16.0934 0 0
5:55 pm 17:55 Clear 43 6.3 29 -1.9 56 56 NNE 7 11 30.09 1019 10 16.0934 0 0
6:15 pm 18:15 Clear 38 3.6 28 -2.5 65 65 NE 7 11 30.12 1020 10 16.0934 0 0
6:35 pm 18:35 Clear 37 2.5 26 -3.2 66 66 ENE 3 6 30.12 1020 10 16.0934 0 0
6:55 pm 18:55 Clear 37 2.9 26 -3.5 63 63 NE 3 6 30.12 1020 10 16.0934 0 0
7:15 pm 19:15 Clear 36 2.2 25 -4 64 64 NE 6 9 30.12 1020 10 16.0934 0 0
7:35 pm 19:35 Clear 33 0.6 25 -4.1 71 71 NNE 5 7 30.15 1021 10 16.0934 0 0
7:55 pm 19:55 Clear 35 1.6 25 -3.8 68 68 NNW 3 6 30.15 1021 10 16.0934 0 0
8:15 pm 20:15 Partly Cloudy 33 0.3 25 -4 73 73 Calm 30.18 1022 10 16.0934 0 0
8:35 pm 20:35 Partly Cloudy 31 -0.3 25 -4.1 76 76 Calm 30.18 1022 10 16.0934 0 0
8:55 pm 20:55 Clear 30 -0.9 24 -4.2 79 79 Calm 30.21 1023 10 16.0934 0 0
9:15 pm 21:15 Partly Cloudy 32 0 24 -4.2 74 74 Calm 30.21 1023 10 16.0934 0 0
9:35 pm 21:35 Clear 33 0.7 23 -5 66 66 NE 5 7 30.21 1023 10 16.0934 0 0
9:55 pm 21:55 Clear 32 0.1 22 -5.8 65 65 N 5 7 30.24 1024 10 16.0934 0 0
10:15 pm 22:15 Clear 33 0.5 21 -6 62 62 N 3 6 30.24 1024 10 16.0934 0 0
10:35 pm 22:35 Clear 33 0.7 20 -6.6 59 59 N 3 6 30.24 1024 10 16.0934 0 0
10:55 pm 22:55 Clear 31 -0.3 19 -7.2 60 60 NW 3 6 30.27 1025 10 16.0934 0 0
11:15 pm 23:15 Clear 30 -1 19 -7.4 62 62 N 7 11 30.3 1026 10 16.0934 0 0
11:35 pm 23:35 Clear 30 -1.3 19 -7.2 65 65 WSW 3 6 30.3 1026 10 16.0934 0 0
11:55 pm 23:55 Clear 28 -2.4 19 -7.4 69 69 WNW 6 9 30.3 1026 10 16.0934 0 0

Powered by AerisWeather